EW4496 Weather Reports


time (UTC)temp
C
wind
direction
speed
KPH
gust
KPH
rain 1hr
cm
rain 24hr
cm
rain mn
cm
humidity
%
barometer
mb
20260509034605 20 337 0.0 0.0 0.00 0.00 0.00 72 1012.7
20260509033134 21 319 0.0 0.0 0.00 0.00 0.00 69 1012.7
20260509031600 22 322 0.0 1.6 0.00 0.00 0.00 66 1012.7
20260509030100 23 307 0.0 0.0 0.00 0.00 0.00 62 1012.6
20260509024608 25 307 0.0 1.6 0.00 0.00 0.00 61 1012.4
20260509023100 25 292 0.0 4.8 0.00 0.00 0.00 58 1012.3
20260509021600 27 309 0.0 3.2 0.00 0.00 0.00 55 1012.3
20260509020112 27 312 0.0 4.8 0.00 0.00 0.00 52 1012.1
20260509014615 27 319 0.0 4.8 0.00 0.00 0.00 51 1012.4
20260509013115 28 335 0.0 6.4 0.00 0.00 0.00 49 1012.4
20260509011616 28 344 0.0 6.4 0.00 0.00 0.00 49 1012.4
20260509010115 30 351 0.0 3.2 0.00 0.00 0.00 47 1012.4
20260509004614 30 319 0.0 1.6 0.00 0.00 0.00 44 1012.5
20260509003016 30 330 0.0 4.8 0.00 0.00 0.00 39 1012.6
20260509001514 30 292 0.0 0.0 0.00 0.00 0.00 40 1012.8
20260509000014 30 356 0.0 4.8 0.00 0.00 0.00 40 1012.8
20260508234514 30 305 0.0 0.0 0.00 0.00 0.00 41 1013.0
20260508233014 30 350 0.0 0.0 0.00 0.00 0.00 44 1013.2
20260508231514 29 353 0.0 1.6 0.00 0.00 0.00 42 1013.3
20260508230046 28 259 0.0 0.0 0.00 0.00 0.00 44 1013.5
20260508224559 28 235 0.0 3.2 0.00 0.00 0.00 46 1013.7
20260508223059 28 16 0.0 0.0 0.00 0.00 0.00 46 1014.0
20260508221614 27 22 0.0 6.4 0.00 0.00 0.00 47 1014.3
20260508220113 27 65 0.0 6.4 0.00 0.00 0.00 47 1014.4
20260508214559 27 46 0.0 1.6 0.00 0.00 0.00 48 1014.8
20260508213101 27 350 0.0 1.6 0.00 0.00 0.00 49 1015.0
20260508211514 26 24 0.0 4.8 0.00 0.00 0.00 49 1015.1
20260508210020 26 359 0.0 1.6 0.00 0.00 0.00 51 1015.4
20260508204509 26 319 0.0 3.2 0.00 0.00 0.00 53 1015.5
20260508203008 25 307 0.0 0.0 0.00 0.00 0.00 55 1015.6
20260508201608 25 4 0.0 3.2 0.00 0.00 0.00 53 1015.7
20260508200108 25 25 1.6 6.4 0.00 0.00 0.00 55 1016.0
20260508194609 24 150 0.0 3.2 0.00 0.00 0.00 58 1016.0
20260508193121 23 356 0.0 0.0 0.00 0.00 0.00 57 1016.2
20260508191613 23 342 0.0 1.6 0.00 0.00 0.00 57 1016.3
20260508190115 22 302 0.0 3.2 0.00 0.00 0.00 61 1016.5
20260508184618 22 335 0.0 0.0 0.00 0.00 0.00 63 1016.6
20260508183107 21 276 0.0 1.6 0.00 0.00 0.00 67 1016.7
20260508181608 21 217 0.0 1.6 0.00 0.00 0.00 68 1016.8
20260508180008 20 252 0.0 1.6 0.00 0.00 0.00 71 1016.7
20260508174509 18 187 0.0 1.6 0.00 0.00 0.00 74 1016.9
20260508173022 17 346 0.0 0.0 0.00 0.00 0.00 77 1017.0
20260508171525 17 338 0.0 0.0 0.00 0.00 0.00 78 1017.1
20260508170043 16 278 0.0 1.6 0.00 0.00 0.00 82 1017.1
20260508164544 16 303 0.0 0.0 0.00 0.00 0.00 83 1017.1
20260508163057 15 195 0.0 1.6 0.00 0.00 0.00 87 1017.0
20260508161552 13 195 0.0 1.6 0.00 0.00 0.00 88 1017.0
20260508160042 13 286 0.0 3.2 0.00 0.00 0.00 88 1017.2
20260508154542 13 282 0.0 3.2 0.00 0.00 0.00 88 1017.2
20260508153107 13 226 0.0 3.2 0.00 0.00 0.00 88 1017.2
20260508151557 13 245 0.0 1.6 0.00 0.00 0.00 88 1017.1
20260508150059 13 306 0.0 3.2 0.00 0.00 0.00 88 1017.1
20260508144557 13 283 0.0 3.2 0.00 0.00 0.00 89 1016.8
20260508143116 12 226 0.0 1.6 0.00 0.00 0.00 90 1016.8
20260508141604 12 223 0.0 4.8 0.00 0.00 0.00 92 1016.7
20260508140115 11 265 0.0 0.0 0.00 0.00 0.00 94 1016.5
20260508134556 11 229 0.0 0.0 0.00 0.00 0.00 94 1016.3
20260508133102 10 240 0.0 0.0 0.00 0.00 0.00 94 1016.2
20260508131556 10 209 0.0 0.0 0.00 0.00 0.00 94 1016.3
20260508130107 10 288 0.0 0.0 0.00 0.00 0.00 94 1016.3
20260508124613 10 250 0.0 0.0 0.00 0.00 0.00 94 1016.1
20260508123110 10 276 0.0 0.0 0.00 0.00 0.00 94 1016.0
20260508121611 11 221 0.0 0.0 0.00 0.00 0.00 94 1015.8
20260508120115 11 282 0.0 0.0 0.00 0.00 0.00 94 1015.7
20260508114511 11 233 0.0 0.0 0.00 0.00 0.00 94 1015.7
20260508113038 11 230 0.0 0.0 0.00 0.00 0.00 94 1015.7
20260508111542 11 288 0.0 0.0 0.00 0.00 0.00 94 1015.7
20260508110041 11 240 0.0 0.0 0.00 0.00 0.00 94 1015.7
20260508104541 11 226 0.0 0.0 0.00 0.00 0.00 93 1015.6
20260508103046 11 231 0.0 0.0 0.00 0.00 0.00 93 1015.6
20260508101541 11 229 0.0 0.0 0.00 0.00 0.00 93 1015.6
20260508100028 11 231 0.0 0.0 0.00 0.00 0.00 93 1015.6
20260508094544 11 225 0.0 0.0 0.00 0.00 0.00 93 1015.5
20260508093041 12 279 0.0 0.0 0.00 0.00 0.00 92 1015.5
20260508091602 12 231 0.0 0.0 0.00 0.00 0.00 92 1015.5
20260508090044 12 250 0.0 0.0 0.00 0.00 0.00 92 1015.4
20260508084555 12 288 0.0 0.0 0.00 0.00 0.00 92 1015.4
20260508083055 12 279 0.0 0.0 0.00 0.00 0.00 91 1015.4
20260508081612 12 199 0.0 0.0 0.00 0.00 0.00 91 1015.4
20260508074602 13 231 0.0 3.2 0.00 0.00 0.00 91 1015.3
20260508071555 13 303 0.0 1.6 0.00 0.00 0.00 89 1015.1
20260508070055 13 282 0.0 3.2 0.00 0.00 0.00 88 1015.1
20260508064555 14 211 0.0 3.2 0.00 0.00 0.00 87 1015.1
20260508063058 15 215 0.0 0.0 0.00 0.00 0.00 86 1015.0
20260508061557 15 247 0.0 1.6 0.00 0.00 0.00 86 1015.0
20260508060111 16 201 0.0 0.0 0.00 0.00 0.00 84 1014.9
20260508054639 16 235 0.0 0.0 0.00 0.00 0.00 84 1015.0
20260508053056 16 243 0.0 0.0 0.00 0.00 0.00 83 1015.1
20260508051554 16 349 0.0 1.6 0.00 0.00 0.00 82 1015.0
20260508050054 17 321 0.0 0.0 0.00 0.00 0.00 81 1014.9
20260508044554 17 321 0.0 0.0 0.00 0.00 0.00 79 1014.7
20260508043059 17 323 0.0 0.0 0.00 0.00 0.00 78 1014.5
20260508041555 18 352 0.0 0.0 0.00 0.00 0.00 77 1014.4
20260508040055 19 318 0.0 0.0 0.00 0.00 0.00 76 1014.2